Kenosha, WI

8:06 AM CST on February 25, 2018 (GMT -0600)
Kenosha Regional

Weather History for KENW - October, 2011

Change the Weather History Date:

Friday, October 28, 2011

  Actual Average Record
Temperature  
Mean Temperature 43 °F -  
Max Temperature 55 °F 55 °F 73 °F (1948)
Min Temperature 32 °F 39 °F 23 °F (1959)
Degree Days  
Heating Degree Days 22    
Moisture  
Dew Point 32 °F    
Average Humidity 78    
Maximum Humidity 100    
Minimum Humidity 31    
Precipitation  
Precipitation 0.04 in - - ()
Sea Level Pressure  
Sea Level Pressure 30.13 in    
Wind  
Wind Speed 4 mph (SW)    
Max Wind Speed 13 mph    
Max Gust Speed 16 mph    
Visibility 5 miles    
Events Fog , Rain    
Averages and records for this station are not official NWS values.
T = Trace of Precipitation, MM = Missing Value Source: NWS Daily Summary

Daily Weather History Graph

Daily Weather History Graph

Search for Another Location

Airport or City:

Trip Planner

Search our weather history database for the weather conditions in past years. The results will help you decide how hot, cold, wet, or windy it might be!

Date:

Astronomy

Oct. 28, 2011 Rise Set
Actual Time 7:20 AM CDT 5:50 PM CDT
Civil Twilight 6:51 AM CDT 6:19 PM CDT
Nautical Twilight 6:18 AM CDT 6:52 PM CDT
Astronomical Twilight 5:45 AM CDT 7:25 PM CDT
Moon 9:39 AM CDT (10/28) 7:08 PM CDT (10/28)
Length of Visible Light 11h 28m
Length of Day
10h 30m
Waxing Crescent, 5% of the Moon is Illuminated
Oct 28
Waxing Crescent
Nov 2
First Quarter
Nov 10
Full
Nov 18
Last Quarter
Nov 25
New

Hourly Weather History & Observations

Time (CDT) Temp. Windchill Dew Point Humidity Pressure Visibility Wind Dir Wind Speed Gust Speed Precip Events Conditions
12:04 AM 33.8 °F 30.8 °F 32.0 °F 93% 30.13 in 0.5 mi WSW 3.5 mph - N/A Fog Fog
12:22 AM 33.8 °F 30.8 °F 32.0 °F 93% 30.14 in 1.2 mi WSW 3.5 mph - N/A   Clear
12:53 AM 35.1 °F 32.2 °F 33.1 °F 92% 30.16 in 1.2 mi WSW 3.5 mph - N/A   Clear
1:02 AM 33.8 °F 30.8 °F 30.2 °F 87% 30.14 in 2.5 mi WSW 3.5 mph - N/A   Clear
1:44 AM 33.8 °F - 33.8 °F 100% 30.14 in 0.8 mi Calm Calm - N/A   Clear
1:53 AM 33.1 °F - 32.0 °F 96% 30.16 in 0.5 mi Calm Calm - N/A Fog Fog
2:19 AM 35.6 °F 32.8 °F 33.8 °F 93% 30.15 in 1.0 mi SSW 3.5 mph - N/A   Clear
2:40 AM 35.6 °F 32.8 °F 33.8 °F 93% 30.15 in 2.0 mi SSW 3.5 mph - N/A   Clear
3:19 AM 33.8 °F - 33.8 °F 100% 30.14 in 0.5 mi Calm Calm - N/A Fog Fog
3:38 AM 35.6 °F 32.8 °F 33.8 °F 93% 30.14 in 2.0 mi SW 3.5 mph - N/A   Clear
3:53 AM 34.0 °F 29.8 °F 32.0 °F 92% 30.17 in 2.0 mi WSW 4.6 mph - N/A   Clear
4:00 AM 33.8 °F 29.6 °F 30.2 °F 87% 30.14 in 1.5 mi WSW 4.6 mph - N/A   Clear
4:14 AM 35.6 °F 31.7 °F 33.8 °F 93% 30.14 in 2.5 mi WSW 4.6 mph - N/A   Clear
4:27 AM 33.8 °F 30.8 °F 32.0 °F 93% 30.14 in 1.0 mi West 3.5 mph - N/A   Clear
4:34 AM 33.8 °F 29.6 °F 30.2 °F 87% 30.15 in 0.8 mi WSW 4.6 mph - N/A   Clear
4:41 AM 33.8 °F 29.6 °F 30.2 °F 87% 30.15 in 2.0 mi WSW 4.6 mph - N/A   Clear
4:53 AM 33.1 °F 30.0 °F 30.9 °F 92% 30.17 in 2.5 mi West 3.5 mph - N/A   Clear
5:07 AM 33.8 °F - 32.0 °F 93% 30.15 in 1.8 mi Calm Calm - N/A   Clear
5:15 AM 33.8 °F - 30.2 °F 87% 30.15 in 2.5 mi Calm Calm - N/A   Clear
5:32 AM 33.8 °F 30.8 °F 30.2 °F 87% 30.15 in 3.0 mi WSW 3.5 mph - N/A   Clear
5:53 AM 33.1 °F 30.0 °F 30.9 °F 92% 30.17 in 2.5 mi WSW 3.5 mph - N/A   Clear
6:53 AM 34.0 °F - 32.0 °F 92% 30.17 in 2.5 mi Calm Calm - N/A   Clear
7:02 AM 33.8 °F - 30.2 °F 87% 30.15 in 6.0 mi Calm Calm - N/A   Clear
7:53 AM 32.0 °F 28.7 °F 30.9 °F 96% 30.19 in 6.0 mi West 3.5 mph - N/A   Clear
8:53 AM 37.9 °F - 35.1 °F 89% 30.19 in 6.0 mi Calm Calm - N/A   Clear
9:53 AM 45.0 °F 41.2 °F 37.0 °F 74% 30.18 in 6.0 mi WSW 6.9 mph - N/A   Haze
10:53 AM 48.9 °F - 35.1 °F 59% 30.17 in 10.0 mi SW 3.5 mph - N/A   Clear
11:53 AM 52.0 °F - 34.0 °F 50% 30.15 in 10.0 mi SW 8.1 mph - N/A   Clear
12:53 PM 50.0 °F - 28.0 °F 43% 30.12 in 10.0 mi West 10.4 mph 16.1 mph N/A   Mostly Cloudy
2:53 PM 53.1 °F - 24.1 °F 32% 30.08 in 10.0 mi West 6.9 mph - N/A   Partly Cloudy
3:53 PM 54.0 °F - 24.1 °F 31% 30.06 in 10.0 mi WSW 6.9 mph - N/A   Scattered Clouds
4:53 PM 51.1 °F - 25.0 °F 36% 30.06 in 10.0 mi SW 5.8 mph - N/A   Overcast
5:53 PM 48.9 °F - 28.0 °F 44% 30.06 in 10.0 mi SSW 3.5 mph - N/A   Mostly Cloudy
7:53 PM 44.1 °F 41.5 °F 28.9 °F 55% 30.05 in 10.0 mi South 4.6 mph - N/A   Overcast
8:53 PM 46.0 °F 43.9 °F 28.9 °F 51% 30.05 in 10.0 mi West 4.6 mph - N/A   Overcast
9:53 PM 46.0 °F 43.9 °F 30.9 °F 56% 30.04 in 10.0 mi South 4.6 mph - 0.00 in   Overcast
10:43 PM 44.6 °F 38.4 °F 37.4 °F 76% 30.04 in 2.0 mi SSW 12.7 mph - 0.04 in Rain Heavy Rain
10:53 PM 44.1 °F 39.5 °F 37.0 °F 76% 30.05 in 6.0 mi South 8.1 mph - 0.04 in Rain Light Rain
11:53 PM 43.0 °F 41.3 °F 36.0 °F 76% 30.03 in 10.0 mi South 3.5 mph - 0.00 in   Mostly Cloudy